Weather History for Milton, FL

Change the Weather History Date:

Tuesday, November 26, 2013

  Actual Average (KNSE) Record (KNSE)
Temperature  
Mean Temperature 57 °F -  
Max Temperature 69 °F 65 °F 78 °F (2001)
Min Temperature 45 °F 46 °F 32 °F (2008)
Degree Days  
Heating Degree Days 8    
Growing Degree Days 7 (Base 50)    
Moisture  
Dew Point 47 °F    
Average Humidity 91    
Maximum Humidity 97    
Minimum Humidity 86    
Precipitation  
Precipitation 0.04 in - - ()
Sea Level Pressure  
Sea Level Pressure 29.76 in    
Wind  
Wind Speed 10 mph (NNW)    
Max Wind Speed 17 mph    
Max Gust Speed 28 mph    
Visibility 6 miles    
Events Fog , Rain    
Averages and records for this station are not official NWS values.
T = Trace of Precipitation, MM = Missing Value Source: NWS Daily Summary

Daily Weather History Graph

Daily Weather History Graph

Search for Another Location

Airport:

Trip Planner

Search our weather history database for the weather conditions in past years. The results will help you decide how hot, cold, wet, or windy it might be!

Date:

Astronomy

Nov. 26, 2013 Rise Set
Actual Time 6:23 AM CST 4:46 PM CST
Civil Twilight 5:57 AM CST 5:12 PM CST
Nautical Twilight 5:28 AM CST 5:42 PM CST
Astronomical Twilight 4:59 AM CST 6:11 PM CST
Moon No Moon Rise 12:29 PM CST (11/26)
Length of Visible Light 11h 14m
Length of Day
10h 22m
Last Quarter, 41% of the Moon is Illuminated
Nov 26
Last Quarter
Dec 2
New
Dec 9
First Quarter
Dec 17
Full
Dec 25
Last Quarter

Hourly Weather History & Observations

Time (CST) Temp. Windchill Dew Point Humidity Pressure Visibility Wind Dir Wind Speed Gust Speed Precip Events Conditions
9:12 AM 68.0 °F - 64.9 °F 90% 29.70 in 7.0 mi Calm Calm - N/A   Mostly Cloudy
9:56 AM 69.1 °F - 66.0 °F 90% 29.67 in 7.0 mi NW 3.5 mph - N/A   Mostly Cloudy
10:56 AM 53.1 °F - 50.0 °F 89% 29.68 in 8.0 mi NNW 10.4 mph - N/A   Overcast
11:56 AM 48.9 °F - 46.0 °F 90% 29.69 in 8.0 mi NNW 16.1 mph 24.2 mph N/A   Overcast
12:10 PM 48.9 °F - 46.0 °F 90% 29.71 in 0.5 mi NNW 17.3 mph - N/A Fog Fog
12:56 PM 48.0 °F - 45.0 °F 89% 29.69 in 0.5 mi NNW 15.0 mph - N/A Fog Fog
1:38 PM 48.0 °F - 45.0 °F 89% 29.74 in 1.0 mi NNW 11.5 mph 20.7 mph N/A   Overcast
1:56 PM 48.9 °F - 46.0 °F 90% 29.70 in 2.0 mi NNW 11.5 mph - N/A   Overcast
2:15 PM 48.9 °F - 46.0 °F 90% 29.72 in 2.0 mi North 15.0 mph - N/A   Overcast
2:33 PM 50.0 °F - 46.9 °F 89% 29.71 in 4.0 mi North 15.0 mph - N/A   Overcast
2:56 PM 50.0 °F - 46.9 °F 89% 29.66 in 6.0 mi North 12.7 mph - N/A   Overcast
3:56 PM 52.0 °F - 48.0 °F 86% 29.70 in 10.0 mi NNW 12.7 mph - N/A   Overcast
4:56 PM 52.0 °F - 48.0 °F 86% 29.72 in 10.0 mi NNW 13.8 mph - N/A   Overcast
5:56 PM 50.0 °F - 46.9 °F 89% 29.73 in 6.0 mi North 12.7 mph - 0.01 in Rain Light Rain
6:56 PM 50.0 °F - 46.9 °F 89% 29.77 in 10.0 mi NNW 8.1 mph - 0.01 in   Overcast
7:56 PM 48.9 °F - 46.0 °F 90% 29.78 in 8.0 mi NW 8.1 mph - N/A   Overcast
8:56 PM 48.9 °F - 46.0 °F 90% 29.78 in 8.0 mi NW 8.1 mph - N/A   Overcast
9:29 PM 48.0 °F - 46.0 °F 93% 29.82 in 3.0 mi NW 8.1 mph 17.3 mph 0.00 in Rain Light Rain
9:56 PM 48.0 °F - 46.9 °F 96% 29.79 in 3.0 mi NW 10.4 mph - 0.01 in   Overcast
10:56 PM 46.0 °F 39.0 °F 44.1 °F 93% 29.82 in 7.0 mi NW 17.3 mph 25.3 mph 0.01 in   Overcast
11:04 PM 46.0 °F 39.6 °F 44.1 °F 93% 29.85 in 10.0 mi NW 15.0 mph 26.5 mph N/A   Overcast
11:16 PM 46.0 °F 39.6 °F 43.0 °F 89% 29.85 in 10.0 mi NW 15.0 mph 27.6 mph 0.00 in Rain Light Rain
11:25 PM 45.0 °F 39.3 °F 43.0 °F 93% 29.86 in 10.0 mi NW 11.5 mph 24.2 mph 0.00 in   Overcast
11:36 PM 45.0 °F 38.5 °F 43.0 °F 93% 29.86 in 10.0 mi NW 13.8 mph - 0.00 in   Overcast
11:44 PM 45.0 °F 40.1 °F 44.1 °F 97% 29.86 in 10.0 mi NW 9.2 mph 19.6 mph 0.00 in   Overcast
11:56 PM 45.0 °F 39.7 °F 44.1 °F 97% 29.83 in 9.0 mi NW 10.4 mph - 0.00 in Rain Light Rain